GW4812 Weather Reports


time (UTC)temp
F
wind
direction
speed
knots
gust
knots
rain 1hr
in
rain 24hr
in
rain mn
in
humidity
%
barometer
mb
20260506212052 62 158 0.9 1.7 0.00 0.00 0.13 92 1007.0
20260506211553 61 192 1.7 1.7 0.00 0.00 0.13 92 1007.0
20260506211052 61 290 0.0 0.9 0.00 0.00 0.13 93 1007.0
20260506210554 61 178 0.0 0.0 0.00 0.00 0.13 93 1007.0
20260506210053 61 34 0.0 0.0 0.00 0.00 0.13 93 1007.0
20260506205553 61 195 0.9 1.7 0.00 0.00 0.13 93 1007.0
20260506205053 61 268 0.0 0.9 0.00 0.00 0.13 93 1007.0
20260506204553 61 187 0.0 0.9 0.00 0.00 0.13 93 1007.0
20260506204052 61 186 0.0 0.0 0.00 0.00 0.13 93 1007.0
20260506203553 61 280 0.0 0.9 0.00 0.00 0.13 93 1007.0
20260506203059 61 192 0.9 1.7 0.00 0.00 0.13 93 1007.0
20260506202552 61 189 0.9 1.7 0.00 0.00 0.13 93 1007.0
20260506202052 61 202 0.9 0.9 0.00 0.00 0.12 93 1007.0
20260506201553 61 258 0.0 0.9 0.00 0.00 0.12 93 1007.0
20260506201052 61 194 1.7 1.7 0.00 0.00 0.12 93 1007.0
20260506200552 61 213 0.9 1.7 0.00 0.00 0.12 93 1007.0
20260506200052 61 226 0.9 1.7 0.00 0.00 0.12 93 1007.0
20260506195552 61 200 0.9 1.7 0.00 0.00 0.12 93 1007.0
20260506195053 61 248 0.0 0.9 0.00 0.00 0.12 93 1007.0
20260506194553 61 192 0.9 1.7 0.00 0.00 0.12 93 1008.0
20260506194052 61 247 0.9 1.7 0.00 0.00 0.12 93 1008.0
20260506193553 61 206 1.7 1.7 0.00 0.00 0.12 93 1008.0
20260506193053 61 208 1.7 2.6 0.00 0.00 0.12 92 1008.0
20260506192552 61 165 0.0 0.9 0.07 0.00 0.12 92 1008.0
20260506192053 61 347 0.9 1.7 0.10 0.00 0.12 92 1008.0
20260506191552 61 227 1.7 1.7 0.01 0.00 0.11 91 1008.0
20260506191052 61 230 1.7 2.6 0.07 0.00 0.11 91 1008.0
20260506190553 61 240 0.0 0.9 0.01 0.00 0.10 91 1008.0
20260506190052 61 212 0.9 1.7 0.00 0.00 0.10 91 1008.0
20260506185553 61 219 0.0 0.0 0.00 0.00 0.10 91 1008.0
20260506185052 61 216 0.9 1.7 0.00 0.00 0.10 91 1008.0
20260506184552 61 268 0.9 2.6 0.00 0.00 0.10 91 1008.0
20260506184053 62 276 0.9 1.7 0.00 0.00 0.10 91 1008.0
20260506183553 62 194 0.9 1.7 0.00 0.00 0.10 91 1008.0
20260506183053 62 334 0.9 2.6 0.12 0.00 0.10 91 1008.0
20260506182553 62 295 0.9 1.7 0.01 0.00 0.09 90 1008.0
20260506182053 62 359 0.0 0.9 0.02 0.00 0.09 90 1008.0
20260506181553 62 261 0.9 1.7 0.08 0.00 0.09 89 1008.0
20260506181052 62 226 0.9 0.9 0.00 0.00 0.09 89 1008.0
20260506180552 62 342 0.0 0.0 0.00 0.00 0.08 89 1008.0
20260506180052 62 235 0.9 2.6 0.00 0.00 0.08 88 1008.0
20260506175553 63 191 1.7 3.5 0.01 0.00 0.08 88 1008.0
20260506175052 63 264 0.9 1.7 0.00 0.00 0.08 88 1008.0
20260506174552 63 209 0.9 1.7 0.00 0.00 0.08 88 1008.0
20260506174054 63 277 0.9 2.6 0.00 0.00 0.08 88 1008.0
20260506173553 63 297 0.9 1.7 0.00 0.00 0.08 88 1008.0
20260506173054 63 206 0.9 1.7 0.01 0.00 0.08 89 1008.0
20260506172552 62 180 0.0 0.0 0.00 0.00 0.08 89 1008.0
20260506172052 62 19 0.9 1.7 0.01 0.00 0.08 89 1008.0
20260506171552 62 195 0.0 1.7 0.04 0.00 0.08 90 1009.0
20260506171054 62 357 0.9 0.9 0.04 0.00 0.07 90 1008.0
20260506170554 62 99 0.0 1.7 0.07 0.00 0.07 89 1008.0
20260506170053 62 49 0.0 0.9 0.06 0.00 0.06 89 1008.0
20260506165553 62 0 0.0 0.0 0.00 0.00 0.06 88 1008.0
20260506165052 62 262 0.0 0.9 0.00 0.00 0.05 88 1008.0
20260506164555 62 0 0.0 0.0 0.00 0.00 0.05 88 1009.0
20260506164052 62 215 0.9 1.7 0.05 0.00 0.05 88 1009.0
20260506163553 62 339 0.0 0.9 0.02 0.00 0.04 87 1009.0
20260506163053 62 269 0.0 0.9 0.03 0.00 0.04 87 1009.0
20260506162552 63 176 0.9 1.7 0.01 0.00 0.04 87 1009.0
20260506162053 63 234 1.7 3.5 0.03 0.00 0.05 85 1009.0
20260506161552 63 0 0.0 0.0 0.08 0.00 0.04 85 1009.0
20260506161053 63 0 0.0 0.0 0.03 0.00 0.04 85 1009.0
20260506160552 64 114 0.0 0.0 0.01 0.00 0.03 84 1010.0
20260506160053 64 0 0.0 0.0 0.00 0.00 0.03 84 1010.0
20260506155553 64 151 0.0 0.0 0.00 0.00 0.03 83 1010.0
20260506155052 64 86 0.0 0.9 0.02 0.00 0.02 82 1010.0
20260506154553 65 7 0.0 0.9 0.00 0.00 0.02 80 1010.0
20260506154053 65 142 0.0 0.9 0.00 0.00 0.02 79 1010.0
20260506153553 65 168 0.0 0.9 0.00 0.00 0.01 79 1010.0
20260506153053 65 276 0.0 0.9 0.01 0.00 0.01 79 1010.0
20260506152553 65 267 1.7 2.6 0.01 0.00 0.01 77 1010.0
20260506152053 65 216 0.9 1.7 0.00 0.00 0.00 77 1009.0
20260506151553 65 197 1.7 2.6 0.00 0.00 0.00 76 1009.0
20260506151053 66 258 1.7 1.7 0.00 0.00 0.00 76 1009.0
20260506150553 66 139 2.6 3.5 0.00 0.00 0.00 74 1009.0
20260506150054 66 212 0.9 1.7 0.00 0.00 0.00 73 1010.0
20260506145604 67 145 1.7 2.6 0.00 0.00 0.00 73 1010.0
20260506145053 67 250 1.7 1.7 0.00 0.00 0.00 71 1010.0
20260506144555 67 205 0.9 1.7 0.00 0.00 0.00 71 1010.0
20260506144053 67 269 0.9 1.7 0.00 0.00 0.00 71 1010.0
20260506143553 67 259 0.9 2.6 0.00 0.00 0.00 71 1010.0
20260506143052 67 171 3.5 6.1 0.00 0.00 0.00 71 1010.0
20260506142553 67 213 0.9 2.6 0.00 0.00 0.00 71 1010.0
20260506142052 66 157 1.7 2.6 0.00 0.00 0.00 72 1010.0
20260506141552 66 236 0.0 0.9 0.00 0.00 0.00 72 1010.0
20260506141055 66 220 0.9 0.9 0.00 0.00 0.00 72 1010.0
20260506140552 66 202 0.9 1.7 0.00 0.00 0.00 71 1010.0
20260506140054 66 260 0.9 1.7 0.00 0.00 0.00 71 1010.0
20260506135553 66 4 0.9 0.9 0.00 0.00 0.00 71 1010.0
20260506135053 67 309 1.7 1.7 0.00 0.00 0.00 71 1010.0
20260506134554 67 253 0.0 0.9 0.00 0.00 0.00 71 1010.0
20260506134053 67 260 0.9 2.6 0.00 0.00 0.00 71 1010.0
20260506133552 67 302 0.9 1.7 0.00 0.00 0.00 71 1010.0
20260506133052 67 351 1.7 3.5 0.00 0.00 0.00 71 1010.0
20260506132553 67 198 0.9 2.6 0.00 0.00 0.00 71 1010.0
20260506132053 67 195 1.7 3.5 0.00 0.00 0.00 71 1010.0
20260506131553 66 154 1.7 2.6 0.00 0.00 0.00 71 1010.0
20260506131053 66 8 0.9 1.7 0.00 0.00 0.00 72 1010.0
20260506130553 66 223 0.9 0.9 0.00 0.00 0.00 72 1010.0
20260506130053 66 259 0.0 0.9 0.00 0.00 0.00 72 1010.0
20260506125553 66 224 0.9 2.6 0.00 0.00 0.00 72 1010.0
20260506125054 66 202 1.7 1.7 0.00 0.00 0.00 72 1010.0
20260506124553 66 212 0.9 1.7 0.00 0.00 0.00 73 1010.0
20260506124052 66 247 1.7 2.6 0.00 0.00 0.00 73 1010.0
20260506123552 65 232 0.9 1.7 0.00 0.00 0.00 73 1010.0
20260506123053 65 40 0.9 0.9 0.00 0.00 0.00 73 1009.0
20260506122552 65 228 1.7 1.7 0.00 0.00 0.00 74 1010.0
20260506122053 65 234 0.9 0.9 0.00 0.00 0.00 75 1010.0
20260506121553 65 221 0.9 1.7 0.00 0.00 0.00 75 1010.0
20260506121052 65 9 0.0 0.0 0.00 0.00 0.00 75 1010.0
20260506120553 65 215 0.9 1.7 0.00 0.00 0.00 75 1010.0
20260506120053 65 247 1.7 2.6 0.00 0.00 0.00 75 1010.0
20260506115552 65 223 0.9 1.7 0.00 0.00 0.00 75 1010.0
20260506115052 65 177 1.7 2.6 0.00 0.00 0.00 75 1010.0
20260506114552 64 170 1.7 2.6 0.00 0.00 0.00 76 1010.0
20260506114053 64 40 0.9 0.9 0.00 0.00 0.00 76 1010.0
20260506113553 64 298 0.0 0.0 0.00 0.00 0.00 76 1010.0
20260506113053 64 308 0.0 0.9 0.00 0.00 0.00 77 1010.0
20260506112552 64 147 0.0 0.0 0.00 0.00 0.00 77 1010.0
20260506112053 64 151 0.0 0.9 0.00 0.00 0.00 77 1010.0
20260506111552 64 228 0.0 0.0 0.00 0.00 0.00 77 1010.0
20260506111053 63 252 0.0 0.9 0.00 0.00 0.00 78 1010.0
20260506110552 63 166 0.9 0.9 0.00 0.00 0.00 78 1010.0
20260506110052 63 312 0.0 0.9 0.00 0.00 0.00 78 1010.0
20260506105553 63 57 0.9 0.9 0.00 0.00 0.00 78 1010.0
20260506105054 63 317 0.0 0.0 0.00 0.00 0.00 79 1010.0
20260506104554 63 105 0.0 0.0 0.00 0.00 0.00 79 1010.0
20260506104053 63 173 0.9 1.7 0.00 0.00 0.00 79 1010.0
20260506103553 63 258 0.0 0.9 0.00 0.00 0.00 79 1010.0
20260506103053 63 316 0.0 0.9 0.00 0.00 0.00 79 1010.0
20260506102553 63 277 1.7 1.7 0.00 0.00 0.00 79 1010.0
20260506102052 63 207 0.9 1.7 0.00 0.00 0.00 79 1010.0
20260506101554 63 240 0.0 0.9 0.00 0.00 0.00 79 1010.0
20260506101053 63 215 0.9 1.7 0.00 0.00 0.00 79 1010.0
20260506100552 63 294 0.9 1.7 0.00 0.00 0.00 79 1010.0
20260506100054 63 155 0.0 0.9 0.00 0.00 0.00 79 1010.0
20260506095552 63 208 0.9 1.7 0.00 0.00 0.00 79 1010.0
20260506095052 63 314 0.9 1.7 0.00 0.00 0.00 79 1010.0
20260506094553 63 269 0.9 0.9 0.00 0.00 0.00 80 1010.0
20260506094057 63 83 0.9 1.7 0.00 0.00 0.00 80 1010.0
20260506093553 62 176 0.0 0.9 0.00 0.00 0.00 80 1010.0
20260506093052 62 127 0.9 1.7 0.00 0.00 0.00 80 1010.0
20260506092552 62 129 0.0 0.9 0.00 0.00 0.00 81 1010.0
20260506092053 62 245 0.0 0.9 0.00 0.00 0.00 80 1010.0
20260506091552 62 279 0.0 0.9 0.00 0.00 0.00 81 1010.0
20260506091053 62 0 0.0 0.0 0.00 0.00 0.00 81 1010.0
20260506090552 62 0 0.0 0.0 0.00 0.00 0.00 80 1010.0
20260506090052 62 187 0.0 0.9 0.00 0.00 0.00 80 1010.0
20260506085553 63 0 0.0 0.0 0.00 0.00 0.00 80 1010.0
20260506085053 63 236 0.0 0.9 0.00 0.00 0.00 79 1010.0
20260506084553 63 310 0.0 0.9 0.00 0.00 0.00 79 1010.0
20260506084052 63 318 0.0 0.9 0.00 0.00 0.00 79 1010.0
20260506083553 63 269 0.0 0.9 0.00 0.00 0.00 79 1010.0
20260506083053 63 211 0.0 0.9 0.00 0.00 0.00 79 1010.0
20260506082129 63 280 0.0 0.9 0.00 0.00 0.00 78 1010.0
20260506081552 63 249 0.9 0.9 0.00 0.00 0.00 78 1010.0
20260506081052 63 0 0.0 0.0 0.00 0.00 0.00 78 1010.0
20260506080553 64 202 0.0 0.0 0.00 0.00 0.00 77 1010.0
20260506073053 64 0 0.0 0.0 0.00 0.00 0.00 76 1010.0
20260506072554 64 267 0.0 0.0 0.00 0.00 0.00 75 1010.0
20260506072053 64 167 0.9 0.9 0.00 0.00 0.00 75 1010.0
20260506071552 64 162 0.9 0.9 0.00 0.00 0.00 75 1010.0
20260506071052 64 295 0.9 1.7 0.00 0.00 0.00 74 1010.0
20260506070552 64 352 0.9 1.7 0.00 0.00 0.00 74 1010.0
20260506062052 65 0 0.0 0.0 0.00 0.00 0.00 70 1010.0
20260506061552 65 205 0.9 1.7 0.00 0.00 0.00 70 1010.0
20260506061052 65 0 0.0 0.0 0.00 0.00 0.00 70 1010.0
20260506060553 65 0 0.0 0.0 0.00 0.00 0.00 69 1010.0
20260506051052 66 0 0.0 0.0 0.00 0.00 0.00 67 1011.0
20260506050552 66 83 0.9 1.7 0.00 0.00 0.00 67 1011.0
20260506045053 66 0 0.0 0.0 0.00 0.00 0.00 66 1011.0
20260506044553 67 0 0.0 0.0 0.00 0.00 0.00 65 1011.0
20260506044052 67 0 0.0 0.0 0.00 0.00 0.00 65 1011.0
20260506043552 67 220 0.9 0.9 0.00 0.00 0.00 65 1011.0
20260506043053 67 177 0.0 0.0 0.00 0.00 0.00 64 1011.0
20260506042552 67 148 0.9 1.7 0.00 0.00 0.00 64 1011.0
20260506042052 67 92 0.0 0.9 0.00 0.00 0.00 64 1011.0
20260506041552 67 284 0.0 0.9 0.00 0.00 0.00 63 1011.0
20260506041053 67 252 0.9 0.9 0.00 0.00 0.00 63 1011.0
20260506040552 67 282 0.9 2.6 0.00 0.00 0.00 63 1011.0
20260506040053 68 215 0.0 0.9 0.00 0.00 0.00 63 1011.0
20260506035552 68 192 0.9 0.9 0.00 0.00 0.02 62 1011.0
20260506035052 68 212 0.9 0.9 0.00 0.00 0.02 62 1011.0
20260506034553 68 241 0.9 0.9 0.00 0.00 0.02 62 1011.0
20260506034053 68 207 1.7 1.7 0.00 0.00 0.02 61 1011.0
20260506033553 68 236 0.9 1.7 0.00 0.00 0.02 62 1011.0
20260506033052 68 0 0.0 0.0 0.00 0.00 0.02 61 1011.0
20260506032552 68 299 0.9 0.9 0.00 0.00 0.02 62 1011.0
20260506032056 69 4 0.0 0.0 0.00 0.00 0.02 61 1011.0
20260506031555 69 162 0.9 1.7 0.00 0.00 0.02 61 1011.0
20260506031055 69 340 0.9 0.9 0.00 0.00 0.02 60 1011.0
20260506030555 69 322 0.9 1.7 0.00 0.00 0.02 60 1011.0
20260506030052 69 256 0.0 1.7 0.00 0.00 0.02 60 1011.0
20260506025553 69 309 0.9 1.7 0.00 0.00 0.02 60 1011.0
20260506025053 69 267 0.9 1.7 0.00 0.00 0.02 59 1011.0
20260506024552 69 328 0.0 0.9 0.00 0.00 0.02 60 1011.0
20260506024052 70 332 0.0 0.0 0.00 0.00 0.02 59 1011.0
20260506023553 70 255 0.0 0.9 0.00 0.00 0.02 58 1011.0
20260506023052 70 190 1.7 1.7 0.00 0.00 0.02 58 1011.0
20260506022552 70 265 1.7 4.3 0.00 0.00 0.02 58 1011.0
20260506022053 71 297 0.9 0.9 0.00 0.00 0.02 57 1010.0
20260506021553 71 227 0.9 1.7 0.00 0.00 0.02 56 1011.0
20260506021052 71 314 0.9 1.7 0.00 0.00 0.02 55 1011.0
20260506020553 71 5 0.9 1.7 0.00 0.00 0.02 55 1010.0
20260506020052 72 264 1.7 3.5 0.00 0.00 0.02 54 1010.0
20260506015552 72 256 1.7 4.3 0.00 0.00 0.02 53 1010.0
20260506015053 72 232 1.7 3.5 0.00 0.00 0.02 52 1010.0
20260506014553 72 259 1.7 1.7 0.00 0.00 0.02 52 1010.0
20260506014053 72 22 1.7 2.6 0.00 0.00 0.02 50 1010.0
20260506013553 73 261 0.9 1.7 0.00 0.00 0.02 49 1010.0
20260506013053 73 289 1.7 3.5 0.00 0.00 0.02 48 1010.0
20260506012553 73 283 1.7 3.5 0.00 0.00 0.02 47 1010.0
20260506012053 73 307 1.7 3.5 0.00 0.00 0.02 47 1010.0
20260506011553 73 243 0.9 1.7 0.00 0.00 0.02 47 1010.0
20260506011052 74 257 1.7 2.6 0.00 0.00 0.02 47 1010.0
20260506010554 74 222 0.0 0.9 0.00 0.00 0.02 46 1010.0
20260506010052 74 245 0.9 1.7 0.00 0.00 0.02 47 1010.0
20260506005553 74 253 1.7 2.6 0.00 0.00 0.02 46 1010.0
20260506005053 74 297 1.7 2.6 0.00 0.00 0.02 46 1010.0
20260506004552 74 285 0.9 1.7 0.00 0.00 0.02 47 1009.0
20260506004052 74 346 0.0 0.0 0.00 0.00 0.02 46 1009.0
20260506003552 74 354 1.7 2.6 0.00 0.00 0.02 45 1009.0
20260506003053 75 39 0.9 1.7 0.00 0.00 0.02 45 1009.0
20260506002553 75 266 0.9 1.7 0.00 0.00 0.02 44 1009.0
20260506002052 75 232 1.7 2.6 0.00 0.00 0.02 44 1009.0
20260506001552 75 215 1.7 1.7 0.00 0.00 0.02 43 1009.0
20260506001054 75 202 0.9 2.6 0.00 0.00 0.02 43 1009.0
20260506000553 76 354 1.7 6.1 0.00 0.00 0.02 43 1009.0
20260506000052 76 273 0.9 1.7 0.00 0.00 0.02 41 1009.0
20260505235553 76 282 0.9 1.7 0.00 0.00 0.02 41 1009.0
20260505235056 76 183 0.9 2.6 0.00 0.00 0.02 40 1009.0
20260505234552 77 218 0.0 1.7 0.00 0.00 0.02 40 1009.0
20260505234052 77 317 0.9 1.7 0.00 0.00 0.02 39 1009.0
20260505233552 77 252 0.0 1.7 0.00 0.00 0.02 39 1009.0
20260505233053 77 291 1.7 3.5 0.00 0.00 0.02 38 1009.0
20260505232553 77 265 0.9 1.7 0.00 0.00 0.02 38 1009.0
20260505232053 78 298 0.9 1.7 0.00 0.00 0.02 38 1009.0
20260505231552 78 211 0.9 1.7 0.00 0.00 0.02 37 1009.0
20260505231052 78 209 1.7 3.5 0.00 0.00 0.02 36 1009.0
20260505230553 78 210 1.7 5.2 0.00 0.00 0.02 36 1008.0
20260505230053 78 247 2.6 5.2 0.00 0.00 0.02 36 1008.0
20260505225556 78 213 1.7 3.5 0.00 0.00 0.02 37 1008.0
20260505225053 78 346 0.9 2.6 0.00 0.00 0.02 36 1008.0
20260505224553 79 209 1.7 3.5 0.00 0.00 0.02 36 1008.0
20260505224053 79 210 1.7 3.5 0.00 0.00 0.02 35 1008.0
20260505223553 79 222 1.7 2.6 0.00 0.00 0.02 35 1008.0
20260505223053 79 246 1.7 2.6 0.00 0.00 0.02 35 1008.0
20260505222552 79 220 1.7 3.5 0.00 0.00 0.02 35 1008.0
20260505222055 79 202 1.7 4.3 0.00 0.00 0.02 34 1008.0
20260505221553 79 274 1.7 3.5 0.00 0.00 0.02 34 1008.0
20260505221053 79 240 1.7 2.6 0.00 0.00 0.02 34 1008.0
20260505220553 79 226 1.7 2.6 0.00 0.00 0.02 34 1008.0
20260505220052 80 166 0.9 1.7 0.00 0.00 0.02 33 1008.0
20260505215553 80 231 0.9 1.7 0.00 0.00 0.02 33 1008.0
20260505215053 80 207 1.7 2.6 0.00 0.00 0.02 32 1008.0
20260505214553 80 150 1.7 3.5 0.00 0.00 0.02 32 1008.0
20260505214053 80 211 1.7 4.3 0.00 0.00 0.02 32 1008.0
20260505213553 81 255 2.6 5.2 0.00 0.00 0.02 32 1008.0
20260505213053 81 267 0.9 2.6 0.00 0.00 0.02 33 1008.0
20260505212553 81 268 3.5 5.2 0.00 0.00 0.02 32 1008.0